Miscellaneous Local Product
Issued by NWS Hastings, NE

Home | Current Version | Previous Version | Text Only | Print | Product List | Glossary Off
Versions: 1 2 3 4 5 6 7 8 9 10 11 12 13 14 15 16 17 18 19 20 21 22 23 24 25 26 27 28 29 30 31 32 33 34 35 36 37 38 39 40 41 42 43 44 45 46 47 48 49 50

000
AXUS43 KGID 270002
MISGRI

GID CWA HOURLY WEATHER ROUNDUP
NATIONAL WEATHER SERVICE HASTINGS NE
700 PM CDT SUN JUL 26 2015

NOTE: "FAIR" INDICATES FEW OR NO CLOUDS BELOW 12,000 FEET WITH NO
SIGNIFICANT WEATHER AND/OR OBSTRUCTIONS TO VISIBILITY.

...SOUTH CENTRAL NEBRASKA...

CITY           SKY/WX    TMP DP  RH WIND       PRES   REMARKS
GRAND ISLAND   SUNNY     88  78  72 SE9       29.87F HX 101
HASTINGS       SUNNY     90  75  61 S7        29.87F HX 100
KEARNEY        MOSUNNY   90  73  58 SE9       29.87F HX  98
ORD            MOSUNNY   87  74  64 SE8       29.86F HX  95
YORK           SUNNY     86  77  74 SE6       29.88F HX  97
AURORA         SUNNY     86  79  80 SE8       29.88F HX  99
LEXINGTON      MOSUNNY   91  73  55 SE15      29.87F HX  99
HOLDREGE       SUNNY     89  71  55 SE12      29.87F HX  95
HEBRON         SUNNY     90  72  55 S6        29.86F HX  97

...NEBRASKA PANHANDLE...

CITY           SKY/WX    TMP DP  RH WIND       PRES   REMARKS
CHADRON        SUNNY     89  54  30 S24G37    29.84S
ALLIANCE       PTSUNNY   80  56  43 S24G33    29.92F
SCOTTSBLUFF    MOSUNNY   82  57  42 SE24G31   29.94S
SIDNEY         CLOUDY    71  63  75 E16       30.00F

...WESTERN AND NORTH CENTRAL NEBRASKA...

CITY           SKY/WX    TMP DP  RH WIND       PRES   REMARKS
VALENTINE      CLOUDY    78  67  68 NE17      29.89F
AINSWORTH      TSTM      81  75  83 NE13      29.88F
ONEILL         PTSUNNY   85  73  66 E7        29.89S HX  92
BROKEN BOW     PTSUNNY   88  74  63 SE8       29.88F HX  96
IMPERIAL       CLOUDY    87  62  43 W26G35    29.98R
NORTH PLATTE   CLOUDY    86  73  65 SE5       29.88S HX  93
MCCOOK         PTSUNNY   91  69  48 SE13      29.85F HX  96

...EASTERN NEBRASKA...

CITY           SKY/WX    TMP DP  RH WIND       PRES   REMARKS
NORFOLK        SUNNY     88  74  63 SE7       29.86F HX  96
SO SIOUX CITY  MOSUNNY   86  73  65 E6        29.86F HX  93
TEKAMAH        MOSUNNY   89  77  67 E3        29.85F HX 101
COLUMBUS       MOSUNNY   88  75  66 S6        29.86S HX  97
ALBION         SUNNY     85  75  71 SE7       29.88F HX  93
OMAHA EPPLEY   MOSUNNY   89  76  65 SE9       29.85S HX 100
OFFUTT AFB     SUNNY     88  76  68 E7        29.85S HX  99
MILLARD        MOSUNNY   90  77  66 SE5       29.85F HX 102
LINCOLN        SUNNY     90  76  63 S8        29.86S HX 101
BEATRICE       MOSUNNY   88  77  69 S3        29.86S HX 101
FALLS CITY     PTSUNNY   89  79  72 SE7       29.84F HX 104

...NORTHERN KANSAS...

CITY           SKY/WX    TMP DP  RH WIND       PRES   REMARKS
GOODLAND       CLOUDY    74  61  63 W26G39    29.95R
HILL CITY      SUNNY     94  70  45 SE17      29.85F HX 100
NORTON         CLEAR     88  64  45 SE12      29.86S
SMITH CENTER   SUNNY     90  72  55 SE12      29.85F HX  96
HAYS           SUNNY     93  70  46 S15       29.85F HX  99
RUSSELL        SUNNY     94  70  45 S9        29.84F HX 100
CONCORDIA      MOSUNNY   90  73  57 SE10      29.85F HX  98
SALINA         MOSUNNY   95  70  44 S10       29.83F HX 101
TOPEKA         MOSUNNY   92  72  51 S7        29.85F HX  99



USA.gov is the U.S. government's official web portal to all federal, state and local government web resources and services.